Content
SEND FEEDBACK

Daily
Averages
Monthly
Summary
India

NARODA, INDIA


Home > Asia > India
Elevation: 180 feet     Latitude: 23 01N     Longitude: 072 37E

WEATHER
 
SELECT A DAY
Number of Records: 213,818;   Date Range: 7/1/96 - 9/28/14
 
SHARE

PRINT THIS DATA

[ ← Previous Day ]
WEATHER ALMANAC - FEBRUARY 13, 2013
[ Next Day → ]
[ °C ]   °F
Weather ElementAverageHighLow
Temperature80 °F95 °F (2:10 pm)69.8 °F (4:10 am)
Dewpoint59.3 °F64.4 °F (12:10 pm)53.6 °F (5:10 pm)
Humidity50.1 %68 % (4:10 am)22 % (5:30 pm)
Barometer29.86 in29.96 in (11:30 am)29.80 in (3:10 pm)
Wind Speed5 mph9.2 mph (5:40 am)
Weather ElementAverage
Visibility2.6 mi
Wind DirectionESE (96.2 °)

Weather ElementTotal
Precipitation---
Cooling Degree Days17.4 (Base 65)
Growing Degree Days32.4 (Base 50)
Averaged from 47 records on February 13, 2013
WEATHER CONDITIONS BREAKOUT
WIND DIRECTION BREAKOUT
WEATHER BY HOUR - FEBRUARY 13, 2013
[ °C ]   °F
Local TimeTemperatureDewpointHumidityBarometerVisibilityWind DirectionWind SpeedGust SpeedPrecipitationEventsConditions
12:40 AM75.2 °F59.0 °F57 %29.89 in2.5 miEast (90°)3.5 mphSmoke
1:10 AM71.6 °F59.0 °F64 %29.86 in2.5 miEast (80°)3.5 mphSmoke
1:40 AM73.4 °F59.0 °F61 %29.86 in2.5 miEast (90°)3.5 mphSmoke
2:10 AM73.4 °F59.0 °F61 %29.86 in2.5 miEast (90°)3.5 mphHaze
2:30 AM72.0 °F60.0 °F58 %29.89 in2.0 miEast (90°)2.3 mphHaze
2:40 AM73.4 °F59.0 °F61 %29.86 in2.5 miEast (90°)4.6 mphHaze
3:10 AM71.6 °F59.0 °F64 %29.86 in2.5 miENE (70°)5.8 mphHaze
3:40 AM71.6 °F59.0 °F64 %29.86 in2.5 miENE (70°)4.6 mphHaze
4:10 AM69.8 °F59.0 °F68 %29.86 in2.5 miENE (70°)5.8 mphHaze
4:40 AM69.8 °F59.0 °F68 %29.86 in2.5 miENE (60°)5.8 mphHaze
5:10 AM69.8 °F59.0 °F68 %29.86 in2.5 miENE (70°)5.8 mphHaze
5:30 AM71.0 °F61.0 °F63 %29.89 in2.0 miEast (90°)4.6 mphHaze
5:40 AM69.8 °F59.0 °F68 %29.86 in2.5 miENE (70°)9.2 mphHaze
6:10 AM69.8 °F59.0 °F68 %29.86 in2.5 miENE (70°)9.2 mphHaze
6:40 AM69.8 °F59.0 °F68 %29.89 in2.5 miEast (80°)8.1 mphHaze
7:10 AM69.8 °F59.0 °F68 %29.89 in2.2 miENE (70°)8.1 mphHaze
8:30 AM72.0 °F60.0 °F58 %29.95 in2.0 miEast (90°)6.9 mphClear
8:40 AM71.6 °F59.0 °F64 %29.92 in1.9 miEast (80°)8.1 mphHaze
9:10 AM75.2 °F59.0 °F57 %29.95 in1.9 miEast (80°)8.1 mphHaze
10:10 AM80.6 °F60.8 °F51 %29.95 in2.5 miEast (80°)6.9 mphHaze
11:10 AM84.2 °F62.6 °F48 %29.92 in2.5 miESE (110°)5.8 mphHaze
11:30 AM83.0 °F64.0 °F43 %29.96 in2.0 miEast (90°)6.9 mphClear
12:10 PM87.8 °F64.4 °F46 %29.92 in3.1 miESE (110°)5.8 mphSmoke
12:40 PM87.8 °F64.4 °F46 %29.89 in3.1 miEast (100°)4.6 mphSmoke
1:10 PM93.2 °F62.6 °F36 %29.86 in3.1 miEast (80°)3.5 mphSmoke
2:10 PM95.0 °F60.8 °F32 %29.83 in3.1 miVariable3.5 mphSmoke
2:30 PM90.0 °F59.0 °F25 %29.86 in2.0 miCalm
2:40 PM95.0 °F59.0 °F30 %29.83 in3.7 miSSE (160°)5.8 mph
3:10 PM95.0 °F57.2 °F28 %29.80 in3.7 miVariable3.5 mph
3:40 PM95.0 °F55.4 °F26 %29.80 in3.7 miWNW (300°)3.5 mph
4:10 PM95.0 °F59.0 °F30 %29.80 in3.7 miNW (310°)3.5 mphPartly Cloudy
4:40 PM95.0 °F57.2 °F28 %29.80 in3.7 miWNW (290°)4.6 mphPartly Cloudy
5:10 PM93.2 °F53.6 °F26 %29.80 in3.7 miNorth (350°)4.6 mphPartly Cloudy
5:30 PM90.0 °F56.0 °F22 %29.82 in2.0 miNE (50°)3.5 mphScattered Clouds
5:40 PM91.4 °F55.4 °F29 %29.80 in3.7 miNorth (360°)4.6 mph
6:10 PM89.6 °F55.4 °F31 %29.80 in3.7 miNNE (20°)4.6 mph
7:40 PM82.4 °F59.0 °F45 %29.83 in2.5 miENE (70°)3.5 mphSmoke
8:10 PM82.4 °F59.0 °F45 %29.83 in2.5 miENE (70°)5.8 mphSmoke
8:30 PM81.0 °F64.0 °F46 %29.86 in2.0 miCalm
8:40 PM80.6 °F59.0 °F48 %29.83 in2.5 miNE (50°)4.6 mphSmoke
9:10 PM78.8 °F59.0 °F51 %29.83 in2.5 miNE (40°)4.6 mphSmoke
9:40 PM77.0 °F59.0 °F54 %29.86 in2.5 miNE (50°)3.5 mphSmoke
10:10 PM77.0 °F57.2 °F50 %29.86 in2.5 miNE (50°)5.8 mphSmoke
10:40 PM75.2 °F59.0 °F57 %29.86 in2.5 miNNE (30°)5.8 mphSmoke
11:10 PM73.4 °F59.0 °F61 %29.86 in2.5 miNNE (30°)5.8 mphSmoke
11:30 PM76.0 °F62.0 °F52 %29.87 in2.0 miNorth2.3 mphHaze
11:40 PM73.4 °F59.0 °F61 %29.86 in2.5 miNNE (30°)5.8 mphSmoke
Hourly data recorded from VAAH, located miles away from Naroda, India







STORIES FROM OUR PARTNERS